GFSGL_2pvu_pres_234.txt.gz
Presure
166 176 174 164 144 178 173 190 174 139 142 177 191 144 148 146 152 154 147 156 149 167 172 199 187 178 170 160 163 181 185 173 160 155 164 162 170 151 177 173 150 159 156
166 159 199 206 205 166 179 183 166 160 182 148 146 140 150 151 143 130 151 160 150 150 151 152 163 187 177 167 171 170 144 153 178 155 160 160 167 158 152 148 124 160 153
145 152 178 162 243 199 181 181 176 172 170 176 170 170 153 143 157 150 126 153 168 146 147 159 153 155 154 155 162 160 157 163 165 142 182 161 161 162 154 157 155 141 152
153 148 163 144 196 150 203 178 176 171 168 168 160 166 165 169 153 158 148 176 170 149 131 132 135 149 139 146 148 152 151 151 158 157 167 175 164 157 150 159 154 147 146
183 212 162 160 157 174 196 174 187 185 181 177 176 174 171 170 160 160 155 168 176 151 148 150 134 145 124 145 152 151 142 152 155 153 159 158 169 162 159 152 158 152 152
162 140 144 152 157 163 189 191 193 216 192 188 187 168 179 174 171 173 185 167 149 177 155 147 149 154 157 146 147 145 150 159 157 152 155 153 153 162 172 170 158 150 158
160 158 154 171 178 193 183 182 197 187 180 184 197 184 192 183 175 184 179 177 162 179 155 170 153 159 186 174 149 150 160 160 164 192 168 153 143 161 152 156 183 166 173
189 185 192 192 219 208 193 178 182 174 177 178 197 179 170 175 178 178 165 171 174 181 176 170 170 162 157 168 167 166 159 176 178 166 183 168 170 160 152 145 155 157 170
151 152 186 166 169 185 213 197 192 179 178 171 174 177 183 174 174 190 184 183 186 179 173 181 174 167 163 175 161 140 164 158 155 157 150 163 167 162 158 169 162 172 173
165 170 180 171 188 174 180 212 204 197 193 183 174 169 174 180 171 172 172 218 207 179 188 173 185 183 181 154 186 158 155 142 177 167 167 155 160 182 163 167 158 172 163
160 199 158 181 171 180 175 178 183 207 200 195 191 185 186 174 172 178 161 145 166 183 180 181 191 169 161 176 174 156 187 183 175 157 158 167 168 160 186 173 193 175 154
163 161 176 167 174 175 178 185 225 216 213 200 199 190 190 191 192 188 181 181 176 187 171 190 190 192 201 185 182 200 187 217 187 184 178 187 187 151 185 183 194 182 176
179 186 174 184 193 201 193 202 226 215 245 241 221 207 205 208 190 192 190 195 175 167 165 172 176 177 195 200 198 120 199 218 177 172 179 183 185 182 144 211 204 223 225
174 176 182 182 182 222 188 194 225 229 227 235 229 213 232 230 234 201 208 207 209 207 203 205 191 204 189 172 165 185 225 218 187 184 198 221 229 236 218 241 181 314 247
183 185 188 181 199 213 212 217 213 206 207 221 224 229 231 230 230 227 228 230 228 228 227 222 220 221 223 225 224 224 221 222 213 226 240 292 277 270 295 284 301 247 311
186 201 236 199 225 236 220 213 234 234 228 222 222 220 214 219 220 221 221 220 222 223 223 223 222 229 248 247 248 289 304 303 308 302 302 292 285 279 267 200 185 302 339
214 214 223 224 225 258 241 228 209 215 220 227 233 235 235 250 244 219 222 240 243 241 239 301 302 314 308 301 311 291 293 299 290 287 285 237 181 275 280 291 322 324 315
188 218 218 213 227 227 238 238 251 248 211 229 234 251 240 235 236 241 296 288 285 280 284 283 293 297 291 290 289 282 277 283 269 263 227 255 261 271 275 336 315 304 298
215 228 237 247 279 286 289 292 284 267 239 242 234 235 239 266 272 265 268 261 260 276 265 282 280 280 273 273 270 275 266 268 266 261 257 258 267 267 271 320 302 305 284
257 260 257 254 254 254 259 263 258 254 255 258 255 259 258 254 264 263 265 266 269 267 271 269 267 278 275 276 265 260 255 252 251 252 253 259 256 256 292 315 295 287 277
241 246 249 259 262 280 282 269 258 253 253 263 261 258 259 251 252 271 263 266 264 256 260 259 252 249 251 250 250 245 251 248 244 244 252 172 257 259 289 304 283 274 275
244 243 251 245 304 271 263 259 259 258 256 252 251 256 264 273 257 259 261 253 254 252 249 252 245 247 238 241 242 241 241 238 238 255 243 242 252 262 282 325 270 264 266
262 259 260 276 341 280 251 246 244 252 250 246 251 249 250 258 249 254 257 251 247 245 248 248 245 241 240 241 240 240 241 239 240 239 245 241 249 264 275 329 270 261 262
254 256 245 299 299 283 272 258 238 245 241 238 235 239 240 242 243 244 244 248 249 250 247 243 244 243 249 249 243 241 237 241 245 243 237 247 272 273 281 318 263 251 248
244 242 258 261 258 249 242 238 237 237 233 233 229 245 245 243 244 242 258 261 255 267 246 249 248 250 249 253 250 249 246 245 248 251 254 269 263 266 316 301 267 259 251
237 226 250 230 228 239 235 236 233 242 238 235 251 239 236 245 245 241 256 269 270 269 291 267 256 255 270 248 236 252 264 264 264 271 264 276 286 324 305 296 268 252 251

GFSGL_2pvu_pres_237.txt.gz
Presure
227 179 169 160 182 178 180 146 208 139 162 150 164 147 158 155 146 150 150 153 155 162 149 147 154 170 183 200 181 174 173 169 170 179 186 167 167 171 130 133 151 155 154
172 155 169 172 168 165 218 211 198 198 192 173 148 160 188 130 149 146 148 152 140 145 160 165 148 156 148 143 164 162 161 159 160 134 152 171 171 157 164 173 139 147 167
152 178 181 141 154 157 166 192 190 162 192 190 183 179 177 149 149 172 165 143 143 159 161 159 152 143 148 145 138 141 154 156 150 150 158 154 146 170 169 169 165 122 122
177 173 174 149 159 215 168 176 154 177 181 179 180 181 181 177 159 165 171 171 167 158 157 161 129 140 138 144 141 137 144 148 150 155 154 148 156 160 159 175 166 162 164
162 179 151 168 156 194 158 151 154 155 174 176 175 182 174 173 176 171 169 173 172 165 163 154 154 168 141 140 148 147 151 141 145 135 154 157 155 145 150 157 171 175 169
143 176 195 158 186 142 143 146 155 158 172 186 170 172 186 182 183 183 189 185 167 178 181 178 184 154 164 154 146 143 148 154 151 157 148 149 152 152 162 148 161 160 164
161 152 152 171 181 169 180 166 218 210 200 185 181 187 179 182 174 183 185 185 183 186 187 184 175 175 157 154 161 159 155 158 159 170 149 164 158 166 159 171 185 143 151
185 156 164 161 155 167 157 159 154 165 162 178 206 179 168 184 170 168 187 194 183 174 173 180 175 177 173 177 173 178 155 165 161 157 164 173 162 173 169 161 161 167 173
171 167 150 150 166 159 166 183 173 169 159 181 174 178 175 189 173 164 173 164 185 201 191 196 193 184 177 169 173 179 178 180 174 173 146 162 169 162 155 166 174 159 166
172 153 148 160 162 160 181 158 160 194 168 162 166 179 180 163 180 213 203 177 179 169 166 181 176 180 182 185 201 195 199 202 189 199 201 160 157 159 161 159 154 175 161
182 182 182 183 182 165 177 175 157 151 167 148 182 181 193 173 185 189 215 193 194 180 182 179 181 180 172 163 181 181 182 187 175 148 187 155 182 187 160 181 187 172 166
152 157 160 166 175 190 179 199 183 191 177 172 163 178 176 204 180 222 222 216 214 207 205 201 186 190 194 188 172 182 185 187 188 200 193 201 208 217 194 228 166 164 166
170 175 184 160 192 165 160 163 176 177 179 175 176 191 218 216 194 214 210 245 247 242 224 222 212 210 212 209 223 196 222 222 218 213 209 212 216 209 187 187 151 241 180
179 161 177 192 185 182 167 165 180 174 166 178 177 194 226 203 220 223 209 215 229 219 232 237 226 234 240 244 242 230 205 210 239 239 238 233 233 224 234 233 219 203 217
171 177 162 163 166 181 175 191 177 176 186 179 199 192 218 223 223 216 232 221 230 239 235 229 228 227 229 231 234 238 237 234 232 232 244 244 245 276 313 312 304 305 295
176 188 184 175 186 168 160 165 190 169 163 186 198 203 189 231 223 230 242 252 232 221 220 233 239 244 239 252 232 228 248 287 303 304 309 315 312 307 301 266 299 288 290
171 177 168 169 188 177 178 169 179 176 175 182 197 262 210 268 270 268 253 222 239 254 203 259 205 249 247 304 280 282 274 287 281 285 297 299 296 291 289 284 282 278 270
169 168 178 190 170 161 178 189 186 218 210 200 271 244 239 265 264 254 280 280 280 276 274 283 278 283 265 274 278 273 280 282 291 293 288 289 280 273 282 275 263 264 263
180 174 175 183 183 195 188 184 202 218 242 250 257 254 275 277 267 252 258 260 259 260 261 265 265 261 263 264 265 275 272 273 272 269 276 274 274 271 268 263 259 262 259
211 212 214 176 189 193 203 211 220 251 244 240 246 248 252 277 270 267 270 264 264 266 264 260 261 255 264 268 263 263 262 258 262 266 275 269 263 258 249 246 250 250 252
208 209 214 194 201 210 216 221 240 231 241 272 254 273 275 259 260 256 251 259 262 263 263 273 272 254 256 262 258 251 250 254 251 248 252 251 251 251 252 255 251 243 250
253 250 249 240 258 248 242 237 241 264 309 303 315 273 257 255 246 256 242 253 246 246 247 253 252 253 254 259 251 249 245 249 249 242 242 243 240 241 242 246 249 250 247
226 226 225 226 227 229 236 262 261 272 325 300 279 250 243 249 242 248 243 240 238 237 239 241 250 261 254 255 256 254 255 253 247 247 250 248 247 244 244 245 246 239 246
212 216 224 230 234 244 259 251 259 241 258 252 251 246 243 237 236 238 231 233 239 237 240 250 254 245 252 250 254 254 269 272 257 256 261 253 244 247 243 243 247 251 252
235 240 254 272 264 255 252 247 241 236 257 236 237 240 236 231 236 242 251 248 241 239 249 257 256 251 246 296 296 303 304 292 271 273 268 258 241 252 252 252 258 266 264
260 250 254 254 250 249 241 239 243 230 250 231 234 248 254 252 250 247 243 239 240 265 285 290 305 311 298 289 287 287 282 284 290 290 297 298 271 265 261 262 276 276 274

GFSGL_2pvu_pres_240.txt.gz
Presure
183 181 184 186 173 166 167 151 146 158 144 175 148 160 173 173 141 133 160 135 147 149 150 159 145 149 152 146 147 164 164 162 159 157 155 168 173 162 162 135 124 141 153
194 186 189 170 165 154 150 161 177 195 193 199 185 195 164 163 173 175 181 175 144 153 160 162 165 155 152 154 147 154 156 159 156 153 152 161 159 158 167 175 156 155 144
138 199 173 190 172 162 166 161 168 149 194 152 206 189 190 182 167 158 161 153 147 156 171 151 157 160 147 162 149 150 144 149 149 150 152 153 154 160 161 157 160 172 193
169 140 202 173 160 175 156 157 182 172 163 159 154 150 185 180 182 173 175 181 176 174 172 172 142 169 160 143 146 136 133 142 150 153 148 150 154 148 149 155 156 162 130
181 169 179 199 200 183 158 151 177 168 151 158 160 197 184 170 188 179 183 183 180 177 173 175 172 170 173 164 181 165 143 146 132 151 145 138 147 151 149 155 151 151 144
173 178 164 170 135 178 165 189 155 144 145 153 192 184 184 187 178 169 172 171 184 174 171 178 183 181 178 182 175 189 161 176 157 151 152 147 158 150 167 153 151 159 152
146 178 162 166 157 175 175 178 164 186 163 152 152 156 157 158 187 190 183 174 176 168 166 162 178 173 174 180 176 185 173 165 149 177 171 160 159 160 154 166 153 157 167
169 182 167 164 157 160 177 172 163 159 161 172 170 173 156 191 155 164 179 165 163 166 165 183 189 170 179 183 171 169 172 170 156 160 165 179 167 161 170 170 163 179 160
145 163 159 173 182 150 154 161 163 165 160 158 159 151 186 151 157 169 162 162 171 170 184 216 207 203 216 170 173 188 191 192 191 193 174 196 192 177 182 188 182 168 170
178 171 162 171 173 197 171 143 155 162 186 184 194 185 156 151 157 167 161 185 161 193 240 211 211 223 214 213 200 187 170 171 179 181 186 188 189 195 192 189 193 196 191
169 164 158 172 190 191 192 193 195 191 187 187 170 176 163 189 161 160 158 175 187 177 191 191 215 210 209 213 218 216 215 209 193 138 188 172 187 187 181 173 179 149 181
168 172 142 184 170 179 154 162 157 156 157 161 183 197 182 182 167 159 174 191 180 181 192 189 193 215 224 224 226 232 252 244 232 228 230 230 227 226 224 220 228 233 213
157 173 142 161 179 182 177 186 190 194 168 165 193 170 163 170 170 189 178 171 182 179 188 172 187 214 232 236 245 243 243 234 222 225 229 242 247 220 219 217 218 216 212
174 182 176 177 192 200 193 203 162 198 196 156 161 199 174 187 191 199 177 164 190 189 180 188 226 219 249 246 234 247 237 229 227 228 235 238 241 243 247 252 253 251 247
173 164 155 164 167 192 166 190 176 189 178 169 176 182 175 172 167 181 174 170 191 190 184 209 218 257 260 259 262 241 241 251 245 238 223 229 240 246 247 269 314 310 314
188 171 187 165 183 174 169 173 175 178 182 183 171 177 169 190 185 168 182 195 201 233 273 250 253 254 264 262 253 254 247 246 244 251 256 260 273 279 282 279 296 293 300
165 194 178 163 169 162 179 170 163 169 180 172 194 175 173 177 185 190 178 209 204 237 246 275 264 273 259 251 282 278 281 276 276 287 268 271 270 291 287 283 291 292 293
171 184 158 163 154 169 172 192 188 168 176 186 184 180 191 193 196 231 216 215 224 260 274 261 258 271 273 265 256 252 259 264 265 266 264 262 267 273 272 281 275 275 282
183 182 182 184 184 166 177 166 177 217 185 183 186 173 193 208 233 240 251 232 251 254 271 281 271 277 270 268 268 267 263 266 255 255 259 262 269 264 264 266 269 271 271
171 190 166 189 187 196 185 212 203 205 208 199 195 210 199 248 241 237 244 230 295 280 263 258 260 253 253 255 254 261 261 270 273 266 258 255 264 261 256 255 255 254 265
202 191 185 169 197 177 186 230 232 241 240 236 234 230 229 229 236 309 329 309 286 261 251 246 241 243 234 251 241 241 250 249 249 257 261 262 261 255 254 250 252 256 245
220 222 200 210 207 213 221 224 224 221 220 217 217 222 239 253 287 291 286 269 254 254 248 244 247 242 240 236 238 238 243 251 242 245 259 262 263 261 258 252 249 252 253
245 224 219 216 210 206 208 213 214 213 221 228 237 265 262 258 253 256 251 235 238 238 235 231 234 235 232 237 240 242 251 250 245 255 259 260 255 253 261 265 261 258 253
218 215 212 206 203 206 213 216 220 227 237 255 257 259 247 244 246 232 244 237 242 247 242 238 237 232 238 242 242 241 256 268 280 288 302 293 315 311 304 254 282 276 259
216 212 211 209 216 219 227 243 245 252 256 241 256 251 242 236 242 243 240 241 242 249 244 239 241 244 246 298 338 313 298 297 299 299 294 294 293 295 288 296 302 298 281
207 215 217 238 255 256 258 264 254 279 259 256 251 240 236 232 235 241 229 231 243 249 231 234 284 296 283 281 290 295 291 289 279 280 290 314 317 316 295 295 298 292 291

GFSGL_2pvu_pres_246.txt.gz
Presure
162 181 191 201 224 153 183 147 143 145 163 153 165 154 162 163 155 154 183 137 162 194 178 166 151 146 144 159 134 158 153 152 159 154 156 156 158 165 165 164 148 167 144
169 185 175 181 152 155 152 163 154 150 168 160 158 163 160 145 161 157 152 158 160 158 156 154 162 149 135 149 150 144 157 153 153 153 154 152 147 155 154 155 155 164 161
176 182 177 164 160 155 153 175 138 170 147 152 156 168 163 143 151 139 151 165 159 161 157 159 161 138 160 137 157 162 138 150 144 148 145 148 152 155 152 150 156 152 161
203 206 201 189 155 173 169 161 149 154 164 158 154 152 145 170 160 200 179 156 151 150 148 153 154 150 145 154 159 149 163 160 153 143 145 155 145 139 144 148 155 147 154
196 188 163 188 187 144 183 166 171 170 161 168 147 160 152 147 161 195 190 190 183 177 180 164 165 182 189 178 151 157 151 147 141 148 168 147 133 140 141 145 150 153 161
183 182 160 171 154 158 178 165 169 170 151 128 175 159 175 151 143 153 199 138 192 182 187 193 190 178 178 177 168 162 185 179 181 235 170 199 202 171 158 150 149 136 162
133 148 164 159 154 170 157 161 184 163 191 165 169 177 162 169 163 159 157 144 168 160 150 152 167 152 167 154 161 159 177 172 184 169 177 192 181 189 219 206 168 160 161
142 167 178 169 178 170 177 160 169 171 164 170 176 172 170 167 167 163 175 167 169 153 159 163 153 158 156 155 155 160 154 154 154 164 176 171 205 184 215 193 235 204 177
177 151 140 148 133 155 160 167 158 157 156 161 159 150 164 158 158 169 169 153 167 174 153 193 157 160 203 167 156 164 164 191 155 159 167 207 194 198 193 175 229 219 230
165 174 172 148 181 161 144 166 165 164 171 167 160 156 164 161 162 162 176 155 148 176 173 174 175 170 159 144 150 150 194 199 179 179 202 178 178 199 209 207 197 237 202
179 172 147 171 180 162 149 167 165 183 163 156 200 184 183 172 160 165 154 140 165 166 165 154 167 162 171 148 160 155 163 181 190 153 178 173 212 200 201 178 245 202 239
182 173 172 166 139 191 158 165 181 154 184 176 188 171 210 180 197 182 158 154 149 184 180 168 204 200 160 156 171 162 176 173 192 184 192 210 185 223 227 222 225 248 244
181 178 178 173 140 172 171 171 167 165 156 171 170 169 171 188 189 174 181 177 145 167 154 192 186 154 203 199 196 190 184 167 168 196 231 194 234 245 203 252 253 249 244
192 189 180 171 182 170 189 176 139 170 154 129 187 182 179 180 180 177 170 199 158 198 158 157 158 171 191 154 158 202 165 167 205 191 195 226 257 249 256 264 264 267 275
188 185 190 169 175 192 182 173 180 167 171 167 161 167 162 166 172 163 193 196 168 183 161 192 170 194 210 183 179 185 197 205 200 207 220 230 239 231 242 242 243 260 248
215 203 186 178 182 163 170 182 170 178 177 189 188 184 185 183 199 186 177 169 179 176 178 168 188 180 201 199 190 197 197 213 200 229 249 233 253 255 262 282 281 279 267
173 190 177 180 187 179 172 175 176 163 176 161 177 178 181 184 170 173 172 173 183 173 194 199 192 191 203 202 201 210 200 214 258 286 278 271 280 270 273 287 283 287 283
230 197 178 184 191 176 174 175 174 177 174 179 176 175 171 171 178 183 183 173 176 189 186 199 194 191 207 217 208 207 232 244 227 295 281 267 269 280 273 265 266 260 262
225 237 233 236 205 234 214 210 195 178 177 176 164 167 164 169 170 171 176 182 173 184 174 197 196 195 211 238 226 238 215 324 315 307 300 289 275 264 257 252 254 255 251
203 202 214 253 244 230 224 213 205 200 200 199 197 191 191 194 206 194 198 201 201 208 207 189 225 218 224 226 254 270 267 266 262 254 254 246 245 245 243 240 240 242 242
211 219 198 216 224 224 221 229 222 219 222 222 225 224 223 216 208 204 205 197 217 195 204 226 212 225 230 278 273 256 258 256 255 261 260 256 253 252 250 251 256 250 251
210 211 210 195 204 201 208 211 224 225 224 209 229 208 216 192 233 214 193 193 194 201 227 223 218 274 279 262 254 253 254 253 247 241 248 240 239 253 251 254 259 284 324
192 193 206 212 189 187 200 202 210 203 200 183 201 209 199 217 205 193 202 198 202 198 228 275 280 264 265 252 246 245 244 243 239 238 239 242 247 249 251 285 303 301 291
234 237 237 172 236 218 226 229 242 185 188 247 189 203 221 217 213 192 194 218 238 267 280 263 271 267 256 254 253 245 240 239 237 244 246 248 249 256 307 294 268 262 263
203 177 188 253 232 226 223 219 218 215 197 198 220 220 223 211 216 218 232 255 279 266 257 266 267 265 256 245 239 234 233 251 244 253 250 254 258 320 283 254 252 254 255
214 213 210 208 210 214 215 216 217 216 217 217 218 218 221 226 233 247 256 278 262 268 272 267 266 256 251 241 241 251 255 249 248 254 259 276 316 270 253 254 248 242 242